Tracking 31027 objects as of 19-Jul-2025
HD Live streaming from Space Station
objects crossing your sky now

COSMOS 1168

Track COSMOS 1168 now!
10-day predictions
COSMOS 1168 is classified as:


NORAD ID: 11735
Int'l Code: 1980-022A
Perigee: 962.6 km
Apogee: 1,013.5 km
Inclination: 82.9 °
Period: 104.7 minutes
Semi major axis: 7359 km
RCS: 2.0656 m2 (large)
Launch date: March 17, 1980
Source: Commonwealth of Independent States (former USSR) (CIS)
Launch site: PLESETSK MISSILE AND SPACE COMPLEX (PKMTR)
Your satellite tracking list
STARLINK-31611
Track 1 satellite(s)




NASA's NSSDC Master Catalog

Two Line Element Set (TLE):
1 11735U 80022A   25199.44444993  .00000056  00000-0  42466-4 0  9993
2 11735  82.9477 161.6374 0034607 210.0816 265.7608 13.75212020274282
Source of the keplerian elements: AFSPC